0 HST 1 20580U 90037B 26166.12212988 .00005845 00000-0 18362-3 0 9993 2 20580 28.4718 94.6872 0001878 120.6716 239.4066 15.30726834788259 0 ISS (ZARYA) 1 25544U 98067A 26166.18985271 .00007715 00000-0 14683-3 0 9997 2 25544 51.6338 309.9786 0004835 187.9159 172.1754 15.49238068571444 0 CXO 1 25867U 99040B 26166.73124906 .00000579 00000-0 00000-0 0 9994 2 25867 56.1776 116.6293 7842889 310.3072 0.0447 0.37804362 17312